Location: Ponte Samoggia
(44.5667°N, 11.1333°E)
Time: 16:01:33
(UTC+00:00)

USA 32 - Pass Details

Date: 26 May 2022
Orbit: 775 x 784 km, 85.0° (Epoch: 02 July)

Event Time Altitude Azimuth Distance (km) Brightness Sun altitude
Exits shadow 00:34:56 48° 219° (SW) 1,016 4.2 -21.7°
Maximum altitude 00:36:13 65° 277° (W) 860 4.1 -21.6°
Drops below altitude 10° 00:41:28 10° 360° (N) 2,348 7.5 -21.3°
Sets 00:43:51 0° 3° (N) 3,280 8.5 -21.1°
